Time,TemperatureF,DewpointF,PressureIn,WindDirection,WindDirectionDegrees,WindSpeedMPH,WindSpeedGustMPH,Humidity,HourlyPrecipIn,Conditions,Clouds,dailyrainin,SoftwareType,DateUTC
2013-03-22 00:01:00,65.7,59.3,28.79,SSE,153,10.1,11.0,80,0.00,,,0.00,LWC V2.10 B1813,2013-03-22 05:01:00,
2013-03-22 00:06:00,65.7,59.3,28.79,South,173,5.8,13.6,80,0.00,,,0.00,LWC V2.10 B1813,2013-03-22 05:06:00,
2013-03-22 00:11:00,65.7,59.3,28.79,SE,146,6.3,10.5,80,0.00,,,0.00,LWC V2.10 B1813,2013-03-22 05:11:00,
2013-03-22 00:16:00,65.7,59.3,28.79,SSE,165,5.8,8.7,80,0.00,,,0.00,LWC V2.10 B1813,2013-03-22 05:16:00,
2013-03-22 00:21:00,65.8,59.5,28.79,South,172,12.3,13.2,80,0.00,,,0.00,LWC V2.10 B1813,2013-03-22 05:21:00,
2013-03-22 00:26:00,65.8,59.8,28.79,South,170,5.8,10.1,81,0.00,,,0.00,LWC V2.10 B1813,2013-03-22 05:26:00,
2013-03-22 00:31:00,65.8,59.8,28.79,South,181,6.3,12.3,81,0.00,,,0.00,LWC V2.10 B1813,2013-03-22 05:31:00,
2013-03-22 00:36:00,65.8,59.8,28.79,SSW,201,5.4,10.5,81,0.00,,,0.00,LWC V2.10 B1813,2013-03-22 05:36:00,
2013-03-22 00:41:00,65.8,59.8,28.79,SSE,157,10.1,10.5,81,0.00,,,0.00,LWC V2.10 B1813,2013-03-22 05:41:00,
2013-03-22 00:46:00,65.8,59.8,28.79,SSE,160,10.5,10.5,81,0.00,,,0.00,LWC V2.10 B1813,2013-03-22 05:46:00,
2013-03-22 00:51:00,66.0,60.0,28.79,South,187,12.3,12.3,81,0.00,,,0.00,LWC V2.10 B1813,2013-03-22 05:51:00,
2013-03-22 00:56:00,66.0,60.0,28.79,South,191,6.3,11.0,81,0.00,,,0.00,LWC V2.10 B1813,2013-03-22 05:56:00,
2013-03-22 01:01:00,66.0,60.0,28.79,South,183,3.1,4.0,81,0.00,,,0.00,LWC V2.10 B1813,2013-03-22 06:01:00,
2013-03-22 01:07:00,66.0,60.0,28.79,SSW,193,5.4,8.1,81,0.00,,,0.00,LWC V2.10 B1813,2013-03-22 06:07:00,
2013-03-22 01:12:00,66.0,60.4,28.79,SSE,147,8.3,8.3,82,0.00,,,0.00,LWC V2.10 B1813,2013-03-22 06:12:00,
2013-03-22 01:17:00,66.0,60.4,28.79,SSW,208,6.3,8.3,82,0.00,,,0.00,LWC V2.10 B1813,2013-03-22 06:17:00,
2013-03-22 01:22:00,66.0,60.4,28.79,SSW,209,6.3,8.3,82,0.00,,,0.00,LWC V2.10 B1813,2013-03-22 06:22:00,
2013-03-22 01:27:00,66.0,60.4,28.79,SW,216,10.1,10.1,82,0.00,,,0.00,LWC V2.10 B1813,2013-03-22 06:27:00,
2013-03-22 01:32:00,66.0,60.4,28.79,SSW,194,7.6,10.5,82,0.00,,,0.00,LWC V2.10 B1813,2013-03-22 06:32:00,
2013-03-22 01:37:00,66.0,60.4,28.79,SSW,196,8.7,10.1,82,0.00,,,0.00,LWC V2.10 B1813,2013-03-22 06:37:00,
2013-03-22 01:42:00,66.2,60.5,28.79,South,172,6.3,6.3,82,0.00,,,0.00,LWC V2.10 B1813,2013-03-22 06:42:00,
2013-03-22 01:47:00,66.2,60.5,28.79,SSW,208,11.0,11.0,82,0.00,,,0.00,LWC V2.10 B1813,2013-03-22 06:47:00,
2013-03-22 01:52:00,66.2,60.5,28.79,South,188,8.7,8.7,82,0.00,,,0.00,LWC V2.10 B1813,2013-03-22 06:52:00,
2013-03-22 01:57:00,66.2,60.5,28.79,SSW,204,6.3,6.7,82,0.00,,,0.00,LWC V2.10 B1813,2013-03-22 06:57:00,
2013-03-22 02:02:00,66.2,60.5,28.79,SSW,209,7.6,8.1,82,0.00,,,0.00,LWC V2.10 B1813,2013-03-22 07:02:00,
2013-03-22 02:07:00,66.2,60.5,28.79,SSE,156,6.3,7.6,82,0.00,,,0.00,LWC V2.10 B1813,2013-03-22 07:07:00,
2013-03-22 02:12:00,66.2,60.5,28.79,SSW,205,10.5,10.5,82,0.00,,,0.00,LWC V2.10 B1813,2013-03-22 07:12:00,
2013-03-22 02:17:00,66.4,60.7,28.79,South,177,6.3,6.3,82,0.00,,,0.00,LWC V2.10 B1813,2013-03-22 07:17:00,
2013-03-22 02:22:00,66.4,60.7,28.79,SSW,209,3.6,5.4,82,0.00,,,0.00,LWC V2.10 B1813,2013-03-22 07:22:00,
2013-03-22 02:27:00,66.4,61.1,28.79,SSW,193,4.0,8.3,83,0.00,,,0.00,LWC V2.10 B1813,2013-03-22 07:27:00,
2013-03-22 02:32:00,66.4,61.1,28.79,SW,214,5.4,7.2,83,0.00,,,0.00,LWC V2.10 B1813,2013-03-22 07:32:00,
2013-03-22 02:37:00,66.4,61.1,28.79,SSE,163,4.0,5.8,83,0.00,,,0.00,LWC V2.10 B1813,2013-03-22 07:37:00,
2013-03-22 02:42:00,66.4,61.1,28.79,SSW,210,4.0,5.4,83,0.00,,,0.00,LWC V2.10 B1813,2013-03-22 07:42:00,
2013-03-22 02:47:00,66.4,61.1,28.79,SSW,208,5.4,9.6,83,0.00,,,0.00,LWC V2.10 B1813,2013-03-22 07:47:00,
2013-03-22 02:52:00,66.4,61.1,28.79,SW,227,4.0,11.0,83,0.00,,,0.00,LWC V2.10 B1813,2013-03-22 07:52:00,
2013-03-22 02:57:00,66.4,61.4,28.79,SW,216,6.3,10.5,84,0.00,,,0.00,LWC V2.10 B1813,2013-03-22 07:57:00,
2013-03-22 03:02:00,66.4,61.4,28.79,SSW,203,3.6,10.1,84,0.00,,,0.00,LWC V2.10 B1813,2013-03-22 08:02:00,
2013-03-22 03:07:00,66.4,61.4,28.79,South,181,6.3,13.2,84,0.00,,,0.00,LWC V2.10 B1813,2013-03-22 08:07:00,
2013-03-22 03:12:00,66.2,61.5,28.79,SSW,208,5.4,10.1,85,0.00,,,0.00,LWC V2.10 B1813,2013-03-22 08:12:00,
2013-03-22 03:17:00,66.2,61.5,28.79,SSW,195,6.7,11.4,85,0.00,,,0.00,LWC V2.10 B1813,2013-03-22 08:17:00,
2013-03-22 03:22:00,66.2,61.5,28.79,South,191,8.3,10.5,85,0.00,,,0.00,LWC V2.10 B1813,2013-03-22 08:22:00,
2013-03-22 03:27:00,66.0,61.7,28.79,South,177,5.8,8.7,86,0.00,,,0.00,LWC V2.10 B1813,2013-03-22 08:27:00,
2013-03-22 03:32:00,66.0,61.7,28.79,South,190,8.1,10.1,86,0.00,,,0.00,LWC V2.10 B1813,2013-03-22 08:32:00,
2013-03-22 03:37:00,66.0,61.7,28.79,SW,214,6.3,9.2,86,0.00,,,0.00,LWC V2.10 B1813,2013-03-22 08:37:00,
2013-03-22 03:42:00,66.0,61.7,28.79,SW,224,4.9,10.1,86,0.00,,,0.00,LWC V2.10 B1813,2013-03-22 08:42:00,
2013-03-22 03:47:00,66.0,61.7,28.79,SSW,193,6.3,7.6,86,0.00,,,0.00,LWC V2.10 B1813,2013-03-22 08:47:00,
2013-03-22 03:52:00,66.0,61.7,28.79,South,179,5.8,6.3,86,0.00,,,0.00,LWC V2.10 B1813,2013-03-22 08:52:00,
2013-03-22 03:57:00,66.0,61.7,28.79,SSW,198,6.7,6.7,86,0.00,,,0.00,LWC V2.10 B1813,2013-03-22 08:57:00,
2013-03-22 04:02:00,66.0,61.7,28.76,South,183,4.0,5.4,86,0.00,,,0.00,LWC V2.10 B1813,2013-03-22 09:02:00,
2013-03-22 04:07:00,66.0,61.7,28.76,SW,214,5.4,6.3,86,0.00,,,0.00,LWC V2.10 B1813,2013-03-22 09:07:00,
2013-03-22 04:12:00,66.0,61.7,28.76,SSW,211,4.9,5.8,86,0.00,,,0.00,LWC V2.10 B1813,2013-03-22 09:12:00,
2013-03-22 04:17:00,66.0,61.7,28.76,SSE,158,5.4,7.2,86,0.00,,,0.00,LWC V2.10 B1813,2013-03-22 09:17:00,
2013-03-22 04:22:00,66.0,61.7,28.76,South,182,4.0,5.4,86,0.00,,,0.00,LWC V2.10 B1813,2013-03-22 09:22:00,
2013-03-22 04:27:00,66.0,61.7,28.76,SSW,208,3.6,5.8,86,0.00,,,0.00,LWC V2.10 B1813,2013-03-22 09:27:00,
2013-03-22 04:32:00,66.0,61.7,28.76,South,188,4.0,5.4,86,0.00,,,0.00,LWC V2.10 B1813,2013-03-22 09:32:00,
2013-03-22 04:37:00,66.0,61.7,28.76,South,169,5.8,6.3,86,0.00,,,0.00,LWC V2.10 B1813,2013-03-22 09:37:00,
2013-03-22 04:42:00,66.0,62.0,28.76,SSE,164,6.3,8.1,87,0.00,,,0.00,LWC V2.10 B1813,2013-03-22 09:42:00,
2013-03-22 04:47:00,66.2,61.9,28.76,South,187,3.1,8.3,86,0.00,,,0.00,LWC V2.10 B1813,2013-03-22 09:47:00,
2013-03-22 04:52:00,66.2,61.9,28.76,WSW,245,4.9,5.4,86,0.00,,,0.00,LWC V2.10 B1813,2013-03-22 09:52:00,
2013-03-22 04:57:00,66.2,61.9,28.76,South,177,3.6,8.1,86,0.00,,,0.00,LWC V2.10 B1813,2013-03-22 09:57:00,
2013-03-22 05:02:00,66.0,62.0,28.76,South,185,2.7,7.2,87,0.00,,,0.00,LWC V2.10 B1813,2013-03-22 10:02:00,
2013-03-22 05:07:00,66.2,61.9,28.76,SSE,161,7.6,7.6,86,0.00,,,0.00,LWC V2.10 B1813,2013-03-22 10:07:00,
2013-03-22 05:13:00,66.2,61.9,28.76,SSW,210,4.0,6.3,86,0.00,,,0.00,LWC V2.10 B1813,2013-03-22 10:13:00,
2013-03-22 05:18:00,66.2,62.2,28.76,SSW,208,4.0,6.3,87,0.00,,,0.00,LWC V2.10 B1813,2013-03-22 10:18:00,
2013-03-22 05:23:00,66.2,62.2,28.76,WSW,239,5.8,7.2,87,0.00,,,0.00,LWC V2.10 B1813,2013-03-22 10:23:00,
2013-03-22 05:28:00,66.2,61.9,28.76,SSW,198,4.0,8.1,86,0.00,,,0.00,LWC V2.10 B1813,2013-03-22 10:28:00,
2013-03-22 05:33:00,66.2,61.9,28.79,South,188,6.3,6.3,86,0.00,,,0.00,LWC V2.10 B1813,2013-03-22 10:33:00,
2013-03-22 05:38:00,66.2,62.2,28.79,South,178,4.0,8.3,87,0.00,,,0.00,LWC V2.10 B1813,2013-03-22 10:38:00,
2013-03-22 05:43:00,66.2,62.2,28.79,SSW,209,3.6,5.4,87,0.00,,,0.00,LWC V2.10 B1813,2013-03-22 10:43:00,
2013-03-22 05:48:00,66.2,62.2,28.79,South,188,5.4,7.2,87,0.00,,,0.00,LWC V2.10 B1813,2013-03-22 10:48:00,
2013-03-22 05:53:00,66.2,62.2,28.79,South,176,2.7,4.9,87,0.00,,,0.00,LWC V2.10 B1813,2013-03-22 10:53:00,
2013-03-22 05:58:00,66.4,62.4,28.79,South,185,5.4,7.6,87,0.00,,,0.00,LWC V2.10 B1813,2013-03-22 10:58:00,
2013-03-22 06:03:00,66.2,62.2,28.79,South,189,3.6,4.9,87,0.00,,,0.00,LWC V2.10 B1813,2013-03-22 11:03:00,
2013-03-22 06:08:00,66.2,62.2,28.79,South,175,2.7,6.3,87,0.00,,,0.00,LWC V2.10 B1813,2013-03-22 11:08:00,
2013-03-22 06:13:00,66.2,62.2,28.79,SSE,164,3.6,7.6,87,0.00,,,0.00,LWC V2.10 B1813,2013-03-22 11:13:00,
2013-03-22 06:18:00,66.4,62.4,28.79,South,180,3.6,6.3,87,0.00,,,0.00,LWC V2.10 B1813,2013-03-22 11:18:00,
2013-03-22 06:23:00,66.4,62.4,28.79,South,178,4.0,5.8,87,0.00,,,0.00,LWC V2.10 B1813,2013-03-22 11:23:00,
2013-03-22 06:28:00,66.4,62.4,28.79,South,178,2.7,4.0,87,0.00,,,0.00,LWC V2.10 B1813,2013-03-22 11:28:00,
2013-03-22 06:33:00,66.2,62.2,28.76,South,176,4.9,5.4,87,0.00,,,0.00,LWC V2.10 B1813,2013-03-22 11:33:00,
2013-03-22 06:38:00,66.4,62.4,28.76,SSW,209,4.0,5.4,87,0.00,,,0.00,LWC V2.10 B1813,2013-03-22 11:38:00,
2013-03-22 06:43:00,66.4,62.4,28.76,South,191,5.4,6.3,87,0.00,,,0.00,LWC V2.10 B1813,2013-03-22 11:43:00,
2013-03-22 06:48:00,66.4,62.4,28.79,South,188,5.4,5.4,87,0.00,,,0.00,LWC V2.10 B1813,2013-03-22 11:48:00,
2013-03-22 06:53:00,66.4,62.4,28.79,WSW,238,2.7,4.0,87,0.00,,,0.00,LWC V2.10 B1813,2013-03-22 11:53:00,
2013-03-22 06:58:00,66.4,62.4,28.79,South,180,5.4,5.8,87,0.00,,,0.00,LWC V2.10 B1813,2013-03-22 11:58:00,
2013-03-22 07:03:00,66.4,62.4,28.79,SSE,150,4.0,4.0,87,0.00,,,0.00,LWC V2.10 B1813,2013-03-22 12:03:00,
2013-03-22 07:08:00,66.4,62.4,28.79,South,170,4.0,4.0,87,0.00,,,0.00,LWC V2.10 B1813,2013-03-22 12:08:00,
2013-03-22 07:13:00,66.4,62.7,28.79,South,172,4.0,5.8,88,0.00,,,0.00,LWC V2.10 B1813,2013-03-22 12:13:00,
2013-03-22 07:18:00,66.4,62.7,28.79,South,178,4.0,5.8,88,0.00,,,0.00,LWC V2.10 B1813,2013-03-22 12:18:00,
2013-03-22 07:23:00,66.4,62.7,28.79,SSW,203,3.6,5.8,88,0.00,,,0.00,LWC V2.10 B1813,2013-03-22 12:23:00,
2013-03-22 07:28:00,66.4,62.7,28.79,SSE,167,3.1,5.4,88,0.00,,,0.00,LWC V2.10 B1813,2013-03-22 12:28:00,
2013-03-22 07:33:00,66.4,62.7,28.82,South,179,3.1,5.8,88,0.00,,,0.00,LWC V2.10 B1813,2013-03-22 12:33:00,
2013-03-22 07:38:00,66.4,62.7,28.82,South,191,4.9,6.3,88,0.00,,,0.00,LWC V2.10 B1813,2013-03-22 12:38:00,
2013-03-22 07:43:00,66.4,62.7,28.82,SE,139,4.9,4.9,88,0.00,,,0.00,LWC V2.10 B1813,2013-03-22 12:43:00,
2013-03-22 07:48:00,66.4,62.7,28.82,SSE,159,2.7,5.8,88,0.00,,,0.00,LWC V2.10 B1813,2013-03-22 12:48:00,
2013-03-22 07:53:00,66.4,62.7,28.82,SE,141,5.8,5.8,88,0.00,,,0.00,LWC V2.10 B1813,2013-03-22 12:53:00,
2013-03-22 07:58:00,66.4,62.7,28.82,South,175,4.0,5.8,88,0.00,,,0.00,LWC V2.10 B1813,2013-03-22 12:58:00,
2013-03-22 08:03:00,66.6,62.9,28.79,SSW,192,3.1,6.3,88,0.00,,,0.00,LWC V2.10 B1813,2013-03-22 13:03:00,
2013-03-22 08:08:00,66.6,63.2,28.79,South,179,5.4,6.3,89,0.00,,,0.00,LWC V2.10 B1813,2013-03-22 13:08:00,
2013-03-22 08:13:00,66.6,63.2,28.79,SSW,192,5.4,5.8,89,0.00,,,0.00,LWC V2.10 B1813,2013-03-22 13:13:00,
2013-03-22 08:18:00,66.6,63.2,28.79,SE,139,6.3,6.3,89,0.00,,,0.00,LWC V2.10 B1813,2013-03-22 13:18:00,
2013-03-22 08:23:00,66.6,63.2,28.79,SSE,153,3.6,5.8,89,0.00,,,0.00,LWC V2.10 B1813,2013-03-22 13:23:00,
2013-03-22 08:28:00,66.6,63.2,28.79,SE,125,6.3,6.3,89,0.00,,,0.00,LWC V2.10 B1813,2013-03-22 13:28:00,
2013-03-22 08:33:00,66.7,63.4,28.82,SE,135,3.6,5.8,89,0.00,,,0.00,LWC V2.10 B1813,2013-03-22 13:33:00,
2013-03-22 08:38:00,66.7,63.4,28.82,South,184,4.0,6.3,89,0.00,,,0.00,LWC V2.10 B1813,2013-03-22 13:38:00,
2013-03-22 08:43:00,66.9,63.6,28.82,South,187,5.4,6.7,89,0.00,,,0.00,LWC V2.10 B1813,2013-03-22 13:43:00,
2013-03-22 08:48:00,66.9,63.9,28.82,South,181,5.4,6.3,90,0.00,,,0.00,LWC V2.10 B1813,2013-03-22 13:48:00,
2013-03-22 08:53:00,67.1,64.1,28.82,SE,144,5.4,5.4,90,0.00,,,0.00,LWC V2.10 B1813,2013-03-22 13:53:00,
2013-03-22 08:58:00,67.1,64.1,28.82,South,172,3.1,3.6,90,0.00,,,0.00,LWC V2.10 B1813,2013-03-22 13:58:00,
2013-03-22 09:03:00,67.3,64.2,28.82,SE,144,4.0,6.3,90,0.00,,,0.00,LWC V2.10 B1813,2013-03-22 14:03:00,
2013-03-22 09:08:00,67.6,64.3,28.82,SSW,199,4.0,6.3,89,0.00,,,0.00,LWC V2.10 B1813,2013-03-22 14:08:00,
2013-03-22 09:13:00,67.8,64.5,28.82,SSE,154,3.6,4.9,89,0.00,,,0.00,LWC V2.10 B1813,2013-03-22 14:13:00,
2013-03-22 09:18:00,68.2,64.5,28.82,SW,231,3.6,10.1,88,0.00,,,0.00,LWC V2.10 B1813,2013-03-22 14:18:00,
2013-03-22 09:23:00,68.5,64.8,28.82,SSW,202,4.0,8.7,88,0.00,,,0.00,LWC V2.10 B1813,2013-03-22 14:23:00,
2013-03-22 09:29:00,68.5,64.5,28.82,SSE,151,3.6,6.3,87,0.00,,,0.00,LWC V2.10 B1813,2013-03-22 14:29:00,
2013-03-22 09:34:00,68.5,64.5,28.85,SSW,194,4.9,8.1,87,0.00,,,0.00,LWC V2.10 B1813,2013-03-22 14:34:00,
2013-03-22 09:39:00,68.7,64.4,28.85,SSW,197,5.4,6.3,86,0.00,,,0.00,LWC V2.10 B1813,2013-03-22 14:39:00,
2013-03-22 09:44:00,69.1,64.7,28.85,SSW,202,4.9,8.1,86,0.00,,,0.00,LWC V2.10 B1813,2013-03-22 14:44:00,
2013-03-22 09:49:00,69.3,64.2,28.85,SSW,204,4.9,8.1,84,0.00,,,0.00,LWC V2.10 B1813,2013-03-22 14:49:00,
2013-03-22 09:54:00,69.8,64.0,28.85,South,185,5.4,6.3,82,0.00,,,0.00,LWC V2.10 B1813,2013-03-22 14:54:00,
2013-03-22 09:59:00,69.6,63.5,28.85,South,169,5.8,5.8,81,0.00,,,0.00,LWC V2.10 B1813,2013-03-22 14:59:00,
2013-03-22 10:04:00,69.6,63.2,28.85,SW,221,3.6,8.3,80,0.00,,,0.00,LWC V2.10 B1813,2013-03-22 15:04:00,
2013-03-22 10:09:00,69.8,63.3,28.85,SW,214,5.8,8.7,80,0.00,,,0.00,LWC V2.10 B1813,2013-03-22 15:09:00,
2013-03-22 10:14:00,69.6,62.8,28.85,SSW,207,6.3,7.6,79,0.00,,,0.00,LWC V2.10 B1813,2013-03-22 15:14:00,
2013-03-22 10:19:00,69.6,62.8,28.85,SW,214,3.1,8.1,79,0.00,,,0.00,LWC V2.10 B1813,2013-03-22 15:19:00,
2013-03-22 10:24:00,70.2,63.0,28.85,South,189,5.4,8.3,78,0.00,,,0.00,LWC V2.10 B1813,2013-03-22 15:24:00,
2013-03-22 10:29:00,70.3,62.8,28.85,WSW,242,4.0,10.1,77,0.00,,,0.00,LWC V2.10 B1813,2013-03-22 15:29:00,
2013-03-22 10:34:00,71.1,63.1,28.85,SSW,211,5.4,7.6,76,0.00,,,0.00,LWC V2.10 B1813,2013-03-22 15:34:00,
2013-03-22 10:39:00,71.1,62.7,28.85,SSW,211,5.4,10.1,75,0.00,,,0.00,LWC V2.10 B1813,2013-03-22 15:39:00,
2013-03-22 10:44:00,71.1,62.7,28.85,WSW,252,7.6,8.1,75,0.00,,,0.00,LWC V2.10 B1813,2013-03-22 15:44:00,
2013-03-22 10:49:00,71.4,63.1,28.85,SW,231,8.7,8.7,75,0.00,,,0.00,LWC V2.10 B1813,2013-03-22 15:49:00,
2013-03-22 10:54:00,72.5,63.7,28.85,SW,233,5.4,5.4,74,0.00,,,0.00,LWC V2.10 B1813,2013-03-22 15:54:00,
2013-03-22 10:59:00,72.1,62.6,28.85,SW,223,6.3,8.7,72,0.00,,,0.00,LWC V2.10 B1813,2013-03-22 15:59:00,
2013-03-22 11:04:00,72.0,62.8,28.85,WSW,237,2.7,4.0,73,0.00,,,0.00,LWC V2.10 B1813,2013-03-22 16:04:00,
2013-03-22 11:09:00,71.8,62.3,28.85,SSW,204,2.7,6.3,72,0.00,,,0.00,LWC V2.10 B1813,2013-03-22 16:09:00,
2013-03-22 11:14:00,72.3,62.8,28.88,West,259,3.6,8.3,72,0.00,,,0.00,LWC V2.10 B1813,2013-03-22 16:14:00,
2013-03-22 11:19:00,72.5,62.1,28.88,SW,225,3.1,6.3,70,0.00,,,0.00,LWC V2.10 B1813,2013-03-22 16:19:00,
2013-03-22 11:24:00,72.9,62.5,28.88,SW,219,6.3,6.3,70,0.00,,,0.00,LWC V2.10 B1813,2013-03-22 16:24:00,
2013-03-22 11:29:00,73.2,62.8,28.88,SW,222,2.7,2.7,70,0.00,,,0.00,LWC V2.10 B1813,2013-03-22 16:29:00,
2013-03-22 11:34:00,72.9,62.1,28.88,SSW,213,2.7,6.3,69,0.00,,,0.00,LWC V2.10 B1813,2013-03-22 16:34:00,
2013-03-22 11:39:00,73.2,62.4,28.88,SW,234,2.2,4.0,69,0.00,,,0.00,LWC V2.10 B1813,2013-03-22 16:39:00,
2013-03-22 11:44:00,73.9,62.3,28.88,South,177,3.1,7.6,67,0.00,,,0.00,LWC V2.10 B1813,2013-03-22 16:44:00,
2013-03-22 11:49:00,74.3,62.6,28.88,NW,324,0.0,4.0,67,0.00,,,0.00,LWC V2.10 B1813,2013-03-22 16:49:00,
2013-03-22 11:54:00,75.2,62.6,28.88,SSW,192,6.3,7.6,65,0.00,,,0.00,LWC V2.10 B1813,2013-03-22 16:54:00,
2013-03-22 11:59:00,75.4,62.8,28.88,SW,216,2.7,4.0,65,0.00,,,0.00,LWC V2.10 B1813,2013-03-22 16:59:00,
2013-03-22 12:04:00,75.6,62.5,28.85,North,350,3.6,4.0,64,0.00,,,0.00,LWC V2.10 B1813,2013-03-22 17:04:00,
2013-03-22 12:09:00,75.4,61.4,28.85,WSW,238,2.7,6.3,62,0.00,,,0.00,LWC V2.10 B1813,2013-03-22 17:09:00,
2013-03-22 12:14:00,75.9,61.9,28.88,WSW,250,6.3,6.3,62,0.00,,,0.00,LWC V2.10 B1813,2013-03-22 17:14:00,
2013-03-22 12:19:00,76.6,62.6,28.88,West,262,0.0,2.7,62,0.00,,,0.00,LWC V2.10 B1813,2013-03-22 17:19:00,
2013-03-22 12:24:00,77.5,62.5,28.88,West,259,4.0,4.0,60,0.00,,,0.00,LWC V2.10 B1813,2013-03-22 17:24:00,
2013-03-22 12:29:00,76.6,61.7,28.88,WSW,237,2.7,8.1,60,0.00,,,0.00,LWC V2.10 B1813,2013-03-22 17:29:00,
2013-03-22 12:34:00,77.0,61.6,28.88,SSW,209,3.6,4.0,59,0.00,,,0.00,LWC V2.10 B1813,2013-03-22 17:34:00,
2013-03-22 12:39:00,77.0,61.6,28.88,WSW,242,5.4,5.4,59,0.00,,,0.00,LWC V2.10 B1813,2013-03-22 17:39:00,
2013-03-22 12:44:00,77.7,62.2,28.88,East,96,2.2,3.6,59,0.00,,,0.00,LWC V2.10 B1813,2013-03-22 17:44:00,
2013-03-22 12:49:00,78.6,62.6,28.85,WNW,288,3.6,5.8,58,0.00,,,0.00,LWC V2.10 B1813,2013-03-22 17:49:00,
2013-03-22 12:54:00,78.4,61.4,28.85,SSW,205,4.5,6.7,56,0.00,,,0.00,LWC V2.10 B1813,2013-03-22 17:54:00,
2013-03-22 12:59:00,77.5,60.6,28.85,SSW,193,4.0,6.3,56,0.00,,,0.00,LWC V2.10 B1813,2013-03-22 17:59:00,
2013-03-22 13:04:00,78.1,61.6,28.85,SSW,213,0.0,2.7,57,0.00,,,0.00,LWC V2.10 B1813,2013-03-22 18:04:00,
2013-03-22 13:09:00,79.0,61.4,28.85,SW,232,4.0,4.0,55,0.00,,,0.00,LWC V2.10 B1813,2013-03-22 18:09:00,
2013-03-22 13:14:00,78.6,60.6,28.85,WSW,249,6.3,7.6,54,0.00,,,0.00,LWC V2.10 B1813,2013-03-22 18:14:00,
2013-03-22 13:19:00,79.7,61.6,28.85,NW,307,3.1,3.1,54,0.00,,,0.00,LWC V2.10 B1813,2013-03-22 18:19:00,
2013-03-22 13:24:00,79.7,61.0,28.85,WNW,296,3.6,4.0,53,0.00,,,0.00,LWC V2.10 B1813,2013-03-22 18:24:00,
2013-03-22 13:29:00,80.1,61.4,28.85,North,349,0.0,0.0,53,0.00,,,0.00,LWC V2.10 B1813,2013-03-22 18:29:00,
2013-03-22 13:34:00,80.6,61.3,28.85,WNW,286,0.0,0.0,52,0.00,,,0.00,LWC V2.10 B1813,2013-03-22 18:34:00,
2013-03-22 13:39:00,80.6,60.2,28.85,NNE,25,2.7,4.0,50,0.00,,,0.00,LWC V2.10 B1813,2013-03-22 18:39:00,
2013-03-22 13:44:00,81.3,60.9,28.85,WNW,291,3.6,3.6,50,0.00,,,0.00,LWC V2.10 B1813,2013-03-22 18:44:00,
2013-03-22 13:49:00,81.5,60.5,28.85,NNW,330,3.1,5.8,49,0.00,,,0.00,LWC V2.10 B1813,2013-03-22 18:49:00,
2013-03-22 13:54:00,81.0,60.0,28.85,West,279,4.0,5.4,49,0.00,,,0.00,LWC V2.10 B1813,2013-03-22 18:54:00,
2013-03-22 13:59:00,81.0,60.0,28.82,SW,214,3.1,3.6,49,0.00,,,0.00,LWC V2.10 B1813,2013-03-22 18:59:00,
2013-03-22 14:04:00,81.5,60.5,28.82,West,279,2.7,5.4,49,0.00,,,0.00,LWC V2.10 B1813,2013-03-22 19:04:00,
2013-03-22 14:09:00,81.3,59.7,28.82,WSW,252,2.7,5.8,48,0.00,,,0.00,LWC V2.10 B1813,2013-03-22 19:09:00,
2013-03-22 14:15:00,81.7,60.1,28.82,West,265,2.7,6.3,48,0.00,,,0.00,LWC V2.10 B1813,2013-03-22 19:15:00,
2013-03-22 14:20:00,81.9,60.2,28.82,WNW,286,8.1,9.6,48,0.00,,,0.00,LWC V2.10 B1813,2013-03-22 19:20:00,
2013-03-22 14:25:00,81.5,59.9,28.82,NE,46,2.7,6.3,48,0.00,,,0.00,LWC V2.10 B1813,2013-03-22 19:25:00,
2013-03-22 14:30:00,81.0,59.4,28.82,NNE,23,3.1,4.0,48,0.00,,,0.00,LWC V2.10 B1813,2013-03-22 19:30:00,
2013-03-22 14:35:00,80.2,59.3,28.82,NNW,337,3.6,4.5,49,0.00,,,0.00,LWC V2.10 B1813,2013-03-22 19:35:00,
2013-03-22 14:40:00,80.2,59.9,28.82,North,357,3.1,5.4,50,0.00,,,0.00,LWC V2.10 B1813,2013-03-22 19:40:00,
2013-03-22 14:45:00,79.9,59.6,28.82,North,357,0.0,4.9,50,0.00,,,0.00,LWC V2.10 B1813,2013-03-22 19:45:00,
2013-03-22 14:50:00,80.1,59.7,28.82,North,357,3.6,5.8,50,0.00,,,0.00,LWC V2.10 B1813,2013-03-22 19:50:00,
2013-03-22 14:55:00,80.2,59.9,28.82,NNW,341,3.1,4.0,50,0.00,,,0.00,LWC V2.10 B1813,2013-03-22 19:55:00,
2013-03-22 15:00:00,81.9,61.4,28.82,NE,43,3.6,4.0,50,0.00,,,0.00,LWC V2.10 B1813,2013-03-22 20:00:00,
2013-03-22 15:05:00,81.3,60.3,28.82,ENE,76,4.0,4.0,49,0.00,,,0.00,LWC V2.10 B1813,2013-03-22 20:05:00,
2013-03-22 15:10:00,81.1,60.1,28.82,NNE,21,2.7,4.9,49,0.00,,,0.00,LWC V2.10 B1813,2013-03-22 20:10:00,
2013-03-22 15:15:00,80.8,59.8,28.82,NNW,340,3.6,4.0,49,0.00,,,0.00,LWC V2.10 B1813,2013-03-22 20:15:00,
2013-03-22 15:20:00,80.2,59.3,28.82,North,4,2.2,5.8,49,0.00,,,0.00,LWC V2.10 B1813,2013-03-22 20:20:00,
2013-03-22 15:25:00,81.0,60.0,28.82,ESE,113,3.1,3.1,49,0.00,,,0.00,LWC V2.10 B1813,2013-03-22 20:25:00,
2013-03-22 15:30:00,82.6,60.9,28.82,North,353,0.0,3.1,48,0.00,,,0.00,LWC V2.10 B1813,2013-03-22 20:30:00,
2013-03-22 15:35:00,84.0,61.6,28.82,NW,324,2.2,3.6,47,0.00,,,0.00,LWC V2.10 B1813,2013-03-22 20:35:00,
2013-03-22 15:40:00,83.7,60.7,28.82,ENE,67,4.0,6.3,46,0.00,,,0.00,LWC V2.10 B1813,2013-03-22 20:40:00,
2013-03-22 15:45:00,83.5,60.5,28.82,North,357,5.4,5.4,46,0.00,,,0.00,LWC V2.10 B1813,2013-03-22 20:45:00,
2013-03-22 15:50:00,84.0,61.0,28.82,NE,48,3.1,3.6,46,0.00,,,0.00,LWC V2.10 B1813,2013-03-22 20:50:00,
2013-03-22 15:55:00,83.5,59.9,28.82,ENE,78,3.6,4.0,45,0.00,,,0.00,LWC V2.10 B1813,2013-03-22 20:55:00,
2013-03-22 16:00:00,83.8,60.2,28.82,NE,43,2.7,4.5,45,0.00,,,0.00,LWC V2.10 B1813,2013-03-22 21:00:00,
2013-03-22 16:05:00,84.6,60.8,28.82,East,88,3.6,3.6,45,0.00,,,0.00,LWC V2.10 B1813,2013-03-22 21:05:00,
2013-03-22 16:10:00,84.2,59.9,28.82,WNW,293,4.0,5.4,44,0.00,,,0.00,LWC V2.10 B1813,2013-03-22 21:10:00,
2013-03-22 16:15:00,83.7,60.0,28.82,East,87,4.0,5.8,45,0.00,,,0.00,LWC V2.10 B1813,2013-03-22 21:15:00,
2013-03-22 16:20:00,83.5,59.2,28.82,SE,133,4.0,6.3,44,0.00,,,0.00,LWC V2.10 B1813,2013-03-22 21:20:00,
2013-03-22 16:25:00,82.4,58.3,28.82,ENE,59,3.1,3.1,44,0.00,,,0.00,LWC V2.10 B1813,2013-03-22 21:25:00,
2013-03-22 16:30:00,83.1,59.5,28.82,North,10,4.9,4.9,45,0.00,,,0.00,LWC V2.10 B1813,2013-03-22 21:30:00,
2013-03-22 16:35:00,83.3,59.1,28.82,ENE,67,2.2,2.7,44,0.00,,,0.00,LWC V2.10 B1813,2013-03-22 21:35:00,
2013-03-22 16:40:00,83.7,59.4,28.82,NNW,332,2.2,4.0,44,0.00,,,0.00,LWC V2.10 B1813,2013-03-22 21:40:00,
2013-03-22 16:45:00,84.0,59.7,28.82,North,353,4.0,5.8,44,0.00,,,0.00,LWC V2.10 B1813,2013-03-22 21:45:00,
2013-03-22 16:50:00,83.7,59.4,28.82,NE,39,2.2,3.1,44,0.00,,,0.00,LWC V2.10 B1813,2013-03-22 21:50:00,
2013-03-22 16:55:00,84.2,59.9,28.82,ENE,65,3.1,6.3,44,0.00,,,0.00,LWC V2.10 B1813,2013-03-22 21:55:00,
2013-03-22 17:00:00,84.4,59.4,28.82,NNE,23,4.0,11.4,43,0.00,,,0.00,LWC V2.10 B1813,2013-03-22 22:00:00,
2013-03-22 17:05:00,83.7,59.4,28.82,North,8,6.7,8.3,44,0.00,,,0.00,LWC V2.10 B1813,2013-03-22 22:05:00,
2013-03-22 17:10:00,82.6,57.8,28.82,NNE,24,8.7,12.3,43,0.00,,,0.00,LWC V2.10 B1813,2013-03-22 22:10:00,
2013-03-22 17:15:00,81.9,57.8,28.82,NNW,336,8.3,10.5,44,0.00,,,0.00,LWC V2.10 B1813,2013-03-22 22:15:00,
2013-03-22 17:20:00,80.4,57.1,28.82,NNE,22,2.7,8.7,45,0.00,,,0.00,LWC V2.10 B1813,2013-03-22 22:20:00,
2013-03-22 17:25:00,80.4,57.1,28.82,North,357,8.3,9.2,45,0.00,,,0.00,LWC V2.10 B1813,2013-03-22 22:25:00,
2013-03-22 17:30:00,80.8,57.4,28.79,North,4,4.9,7.6,45,0.00,,,0.00,LWC V2.10 B1813,2013-03-22 22:30:00,
2013-03-22 17:35:00,80.6,57.3,28.79,ENE,62,5.4,8.1,45,0.00,,,0.00,LWC V2.10 B1813,2013-03-22 22:35:00,
2013-03-22 17:40:00,80.8,57.4,28.79,NE,44,8.1,8.1,45,0.00,,,0.00,LWC V2.10 B1813,2013-03-22 22:40:00,
2013-03-22 17:45:00,80.2,56.9,28.79,NE,49,4.0,7.2,45,0.00,,,0.00,LWC V2.10 B1813,2013-03-22 22:45:00,
2013-03-22 17:50:00,80.1,56.8,28.79,North,357,2.7,8.1,45,0.00,,,0.00,LWC V2.10 B1813,2013-03-22 22:50:00,
2013-03-22 17:55:00,80.4,57.7,28.79,North,357,7.6,12.3,46,0.00,,,0.00,LWC V2.10 B1813,2013-03-22 22:55:00,
2013-03-22 18:00:00,80.8,57.4,28.79,NNE,17,3.6,5.8,45,0.00,,,0.00,LWC V2.10 B1813,2013-03-22 23:00:00,
2013-03-22 18:05:00,79.9,56.6,28.79,NE,37,8.1,8.3,45,0.00,,,0.00,LWC V2.10 B1813,2013-03-22 23:05:00,
2013-03-22 18:10:00,79.2,56.6,28.79,North,0,8.3,8.3,46,0.00,,,0.00,LWC V2.10 B1813,2013-03-22 23:10:00,
2013-03-22 18:15:00,79.3,56.7,28.79,WSW,256,6.3,6.3,46,0.00,,,0.00,LWC V2.10 B1813,2013-03-22 23:15:00,
2013-03-22 18:20:00,79.2,56.6,28.79,NNE,28,3.6,8.3,46,0.00,,,0.00,LWC V2.10 B1813,2013-03-22 23:20:00,
2013-03-22 18:25:00,78.8,56.2,28.79,North,350,6.3,6.3,46,0.00,,,0.00,LWC V2.10 B1813,2013-03-22 23:25:00,
2013-03-22 18:30:00,78.6,56.7,28.82,NNE,17,3.1,6.3,47,0.00,,,0.00,LWC V2.10 B1813,2013-03-22 23:30:00,
2013-03-22 18:35:00,78.4,56.5,28.82,NNE,22,2.2,7.6,47,0.00,,,0.00,LWC V2.10 B1813,2013-03-22 23:35:00,
2013-03-22 18:40:00,78.1,56.2,28.82,NE,36,8.7,11.0,47,0.00,,,0.00,LWC V2.10 B1813,2013-03-22 23:40:00,
2013-03-22 18:45:00,77.9,56.0,28.82,ENE,71,4.0,8.7,47,0.00,,,0.00,LWC V2.10 B1813,2013-03-22 23:45:00,
2013-03-22 18:50:00,77.7,55.9,28.82,NE,34,4.0,4.0,47,0.00,,,0.00,LWC V2.10 B1813,2013-03-22 23:50:00,
2013-03-22 18:55:00,77.4,55.5,28.82,NE,50,6.7,6.7,47,0.00,,,0.00,LWC V2.10 B1813,2013-03-22 23:55:00,
2013-03-22 19:00:00,77.0,55.2,28.82,NNE,33,7.6,7.6,47,0.00,,,0.00,LWC V2.10 B1813,2013-03-23 00:00:00,
2013-03-22 19:05:00,76.6,55.5,28.82,East,85,2.7,5.4,48,0.00,,,0.00,LWC V2.10 B1813,2013-03-23 00:05:00,
2013-03-22 19:10:00,76.3,55.1,28.82,NE,44,5.4,5.4,48,0.00,,,0.00,LWC V2.10 B1813,2013-03-23 00:10:00,
2013-03-22 19:15:00,75.9,55.4,28.82,NE,48,4.9,6.3,49,0.00,,,0.00,LWC V2.10 B1813,2013-03-23 00:15:00,
2013-03-22 19:20:00,75.6,55.0,28.82,ENE,69,3.1,5.8,49,0.00,,,0.00,LWC V2.10 B1813,2013-03-23 00:20:00,
2013-03-22 19:25:00,75.2,54.7,28.82,NNE,30,3.6,11.0,49,0.00,,,0.00,LWC V2.10 B1813,2013-03-23 00:25:00,
2013-03-22 19:30:00,74.8,54.4,28.82,ENE,67,4.9,7.2,49,0.00,,,0.00,LWC V2.10 B1813,2013-03-23 00:30:00,
2013-03-22 19:35:00,74.5,54.6,28.82,North,357,5.8,5.8,50,0.00,,,0.00,LWC V2.10 B1813,2013-03-23 00:35:00,
2013-03-22 19:40:00,73.9,54.1,28.82,NE,41,4.0,4.9,50,0.00,,,0.00,LWC V2.10 B1813,2013-03-23 00:40:00,
2013-03-22 19:45:00,73.8,53.9,28.82,NNE,28,0.0,8.3,50,0.00,,,0.00,LWC V2.10 B1813,2013-03-23 00:45:00,
2013-03-22 19:50:00,73.4,53.6,28.82,North,10,3.1,5.4,50,0.00,,,0.00,LWC V2.10 B1813,2013-03-23 00:50:00,
2013-03-22 19:55:00,73.2,54.0,28.82,North,357,2.7,4.9,51,0.00,,,0.00,LWC V2.10 B1813,2013-03-23 00:55:00,
2013-03-22 20:00:00,72.9,53.7,28.82,East,91,0.0,0.0,51,0.00,,,0.00,LWC V2.10 B1813,2013-03-23 01:00:00,
2013-03-22 20:06:00,72.5,53.3,28.82,NNE,27,3.1,3.6,51,0.00,,,0.00,LWC V2.10 B1813,2013-03-23 01:06:00,
2013-03-22 20:11:00,71.8,52.7,28.82,NE,50,4.0,10.1,51,0.00,,,0.00,LWC V2.10 B1813,2013-03-23 01:11:00,
2013-03-22 20:16:00,70.5,51.5,28.82,ESE,104,3.6,5.8,51,0.00,,,0.00,LWC V2.10 B1813,2013-03-23 01:16:00,
2013-03-22 20:21:00,69.8,50.8,28.82,North,1,3.1,3.1,51,0.00,,,0.00,LWC V2.10 B1813,2013-03-23 01:21:00,
2013-03-22 20:26:00,69.1,50.2,28.82,North,7,7.6,7.6,51,0.00,,,0.00,LWC V2.10 B1813,2013-03-23 01:26:00,
2013-03-22 20:31:00,68.4,49.5,28.85,NNW,334,5.8,10.1,51,0.00,,,0.00,LWC V2.10 B1813,2013-03-23 01:31:00,
2013-03-22 20:36:00,67.6,49.4,28.85,NNE,28,5.4,8.7,52,0.00,,,0.00,LWC V2.10 B1813,2013-03-23 01:36:00,
2013-03-22 20:41:00,67.1,48.9,28.85,ENE,70,5.4,8.1,52,0.00,,,0.00,LWC V2.10 B1813,2013-03-23 01:41:00,
2013-03-22 20:46:00,66.6,48.9,28.85,NNE,12,4.0,6.3,53,0.00,,,0.00,LWC V2.10 B1813,2013-03-23 01:46:00,
2013-03-22 20:51:00,66.2,48.6,28.85,ENE,77,5.4,15.0,53,0.00,,,0.00,LWC V2.10 B1813,2013-03-23 01:51:00,
2013-03-22 20:56:00,65.7,48.1,28.85,NNE,17,6.3,6.3,53,0.00,,,0.00,LWC V2.10 B1813,2013-03-23 01:56:00,
2013-03-22 21:01:00,64.9,47.4,28.85,NNE,15,8.3,8.7,53,0.00,,,0.00,LWC V2.10 B1813,2013-03-23 02:01:00,
2013-03-22 21:06:00,64.2,46.7,28.85,North,0,6.3,7.6,53,0.00,,,0.00,LWC V2.10 B1813,2013-03-23 02:06:00,
2013-03-22 21:11:00,63.5,46.1,28.85,North,353,6.3,8.1,53,0.00,,,0.00,LWC V2.10 B1813,2013-03-23 02:11:00,
2013-03-22 21:16:00,63.0,45.6,28.88,ENE,69,5.4,8.3,53,0.00,,,0.00,LWC V2.10 B1813,2013-03-23 02:16:00,
2013-03-22 21:21:00,62.2,44.9,28.88,North,0,6.7,6.7,53,0.00,,,0.00,LWC V2.10 B1813,2013-03-23 02:21:00,
2013-03-22 21:26:00,61.7,44.4,28.88,NE,46,6.3,15.0,53,0.00,,,0.00,LWC V2.10 B1813,2013-03-23 02:26:00,
2013-03-22 21:31:00,61.2,44.4,28.88,NE,44,2.7,4.5,54,0.00,,,0.00,LWC V2.10 B1813,2013-03-23 02:31:00,
2013-03-22 21:36:00,60.6,44.4,28.88,NNE,25,5.4,8.3,55,0.00,,,0.00,LWC V2.10 B1813,2013-03-23 02:36:00,
2013-03-22 21:41:00,60.1,43.9,28.88,ENE,76,3.6,6.7,55,0.00,,,0.00,LWC V2.10 B1813,2013-03-23 02:41:00,
2013-03-22 21:46:00,59.7,43.5,28.91,ENE,74,2.7,3.6,55,0.00,,,0.00,LWC V2.10 B1813,2013-03-23 02:46:00,
2013-03-22 21:51:00,59.2,43.5,28.91,ENE,63,2.7,3.1,56,0.00,,,0.00,LWC V2.10 B1813,2013-03-23 02:51:00,
2013-03-22 21:56:00,58.8,43.6,28.91,ENE,76,3.1,3.1,57,0.00,,,0.00,LWC V2.10 B1813,2013-03-23 02:56:00,
2013-03-22 22:01:00,58.3,43.1,28.91,East,99,5.4,6.3,57,0.00,,,0.00,LWC V2.10 B1813,2013-03-23 03:01:00,
2013-03-22 22:06:00,57.7,43.1,28.91,NE,45,2.7,7.2,58,0.00,,,0.00,LWC V2.10 B1813,2013-03-23 03:06:00,
2013-03-22 22:11:00,57.7,43.5,28.91,ENE,69,3.6,6.3,59,0.00,,,0.00,LWC V2.10 B1813,2013-03-23 03:11:00,
2013-03-22 22:16:00,57.4,43.2,28.91,NNE,32,6.3,9.6,59,0.00,,,0.00,LWC V2.10 B1813,2013-03-23 03:16:00,
2013-03-22 22:21:00,57.2,43.4,28.91,North,353,3.1,3.6,60,0.00,,,0.00,LWC V2.10 B1813,2013-03-23 03:21:00,
2013-03-22 22:26:00,57.4,43.6,28.91,North,11,0.0,3.6,60,0.00,,,0.00,LWC V2.10 B1813,2013-03-23 03:26:00,
2013-03-22 22:31:00,57.4,44.0,28.91,NE,44,3.6,3.6,61,0.00,,,0.00,LWC V2.10 B1813,2013-03-23 03:31:00,
2013-03-22 22:36:00,57.2,43.9,28.91,ENE,67,0.0,5.8,61,0.00,,,0.00,LWC V2.10 B1813,2013-03-23 03:36:00,
2013-03-22 22:41:00,57.2,43.9,28.91,NNE,15,2.2,2.2,61,0.00,,,0.00,LWC V2.10 B1813,2013-03-23 03:41:00,
2013-03-22 22:46:00,57.0,43.7,28.91,NNE,28,4.0,4.9,61,0.00,,,0.00,LWC V2.10 B1813,2013-03-23 03:46:00,
2013-03-22 22:51:00,57.0,44.1,28.91,North,350,3.6,5.8,62,0.00,,,0.00,LWC V2.10 B1813,2013-03-23 03:51:00,
2013-03-22 22:56:00,56.8,44.0,28.91,NE,37,0.0,3.6,62,0.00,,,0.00,LWC V2.10 B1813,2013-03-23 03:56:00,
2013-03-22 23:00:00,56.8,44.0,28.91,North,11,0.0,3.1,62,0.00,,,0.00,LWC V2.10 B1813,2013-03-23 04:00:00,
2013-03-22 23:05:00,56.8,44.0,28.91,NNW,342,3.1,5.4,62,0.00,,,0.00,LWC V2.10 B1813,2013-03-23 04:05:00,
2013-03-22 23:10:00,56.8,44.4,28.91,North,0,0.0,0.0,63,0.00,,,0.00,LWC V2.10 B1813,2013-03-23 04:10:00,
2013-03-22 23:15:00,56.7,44.2,28.91,East,80,2.7,8.3,63,0.00,,,0.00,LWC V2.10 B1813,2013-03-23 04:15:00,
2013-03-22 23:16:00,56.5,44.0,28.91,East,99,2.7,5.8,63,0.00,,,0.00,LWC V2.10 B1813,2013-03-23 04:16:00,
2013-03-22 23:21:00,56.1,43.7,28.91,North,10,4.9,4.9,63,0.00,,,0.00,LWC V2.10 B1813,2013-03-23 04:21:00,
2013-03-22 23:26:00,55.9,43.5,28.91,East,90,2.7,4.9,63,0.00,,,0.00,LWC V2.10 B1813,2013-03-23 04:26:00,
2013-03-22 23:31:00,55.8,43.8,28.91,NNW,342,3.1,4.9,64,0.00,,,0.00,LWC V2.10 B1813,2013-03-23 04:31:00,
2013-03-22 23:36:00,55.6,43.6,28.91,NNE,31,2.7,4.0,64,0.00,,,0.00,LWC V2.10 B1813,2013-03-23 04:36:00,
2013-03-22 23:41:00,55.4,43.4,28.91,NNW,338,2.2,6.7,64,0.00,,,0.00,LWC V2.10 B1813,2013-03-23 04:41:00,
2013-03-22 23:46:00,55.2,43.7,28.91,NE,34,2.7,3.1,65,0.00,,,0.00,LWC V2.10 B1813,2013-03-23 04:46:00,
2013-03-22 23:51:00,55.2,43.7,28.91,NNE,32,3.1,3.6,65,0.00,,,0.00,LWC V2.10 B1813,2013-03-23 04:51:00,
2013-03-22 23:56:00,55.0,43.5,28.91,NE,41,0.0,4.0,65,0.00,,,0.00,LWC V2.10 B1813,2013-03-23 04:56:00,